Galveston, TX

4:18 PM CDT on May 26, 2017 (GMT -0500)
Scholes International At Galveston

Weather History for KGLS - May, 2014

Change the Weather History Date:

Tuesday, May 27, 2014

  Actual Average Record
Temperature  
Mean Temperature 73 °F 80 °F  
Max Temperature 78 °F 86 °F 90 °F (1922)
Min Temperature 67 °F 75 °F 57 °F (1961)
Degree Days  
Heating Degree Days 0 0  
Month to date heating degree days 0 0  
Since 1 July heating degree days 1425 1009  
Cooling Degree Days 8 15  
Month to date cooling degree days 266 331  
Year to date cooling degree days 454 574  
Growing Degree Days 22 (Base 50)    
Moisture  
Dew Point 72 °F    
Average Humidity 86    
Maximum Humidity 97    
Minimum Humidity 74    
Precipitation  
Precipitation 0.78 in 0.24 in 5.24 in (1874)
Month to date precipitation 1.18 3.50  
Year to date precipitation 6.15 16.48  
Snow  
Snow 0.00 in - - ()
Month to date snowfall 0.0  
Since 1 July snowfall T 0.0  
Snow Depth 0.00 in    
Sea Level Pressure  
Sea Level Pressure 29.98 in    
Wind  
Wind Speed 12 mph (SSE)    
Max Wind Speed 46 mph    
Max Gust Speed 57 mph    
Visibility 9 miles    
Events Rain , Thunderstorm    
T = Trace of Precipitation, MM = Missing Value Source: NWS Daily Summary

Daily Weather History Graph

Daily Weather History Graph

Search for Another Location

Airport or City:

Trip Planner

Search our weather history database for the weather conditions in past years. The results will help you decide how hot, cold, wet, or windy it might be!

Date:

Astronomy

May. 27, 2014 Rise Set
Actual Time 6:21 AM CDT 8:11 PM CDT
Civil Twilight 5:55 AM CDT 8:38 PM CDT
Nautical Twilight 5:23 AM CDT 9:10 PM CDT
Astronomical Twilight 4:49 AM CDT 9:44 PM CDT
Moon 5:37 AM CDT (5/27) 7:20 PM CDT (5/27)
Length of Visible Light 14h 43m
Length of Day
13h 49m
Waning Crescent, 1% of the Moon is Illuminated
May 27
Waning Crescent
May 28
New
Jun 5
First Quarter
Jun 12
Full
Jun 19
Last Quarter

Hourly Weather History & Observations

Time (CDT) Temp. Dew Point Humidity Pressure Visibility Wind Dir Wind Speed Gust Speed Precip Events Conditions
12:30 AM 77.0 °F 75.9 °F 96% 30.01 in 10.0 mi SSE 20.7 mph - N/A   Mostly Cloudy
12:52 AM 77.0 °F 75.9 °F 96% 30.01 in 10.0 mi SSE 20.7 mph - N/A   Mostly Cloudy
1:29 AM 77.0 °F 75.9 °F 96% 30.00 in 10.0 mi South 20.7 mph - N/A   Overcast
1:36 AM 78.1 °F 75.9 °F 93% 30.00 in 10.0 mi SSE 16.1 mph - N/A   Overcast
1:52 AM 78.1 °F 75.9 °F 93% 30.01 in 10.0 mi South 18.4 mph - N/A   Overcast
2:16 AM 78.1 °F 75.0 °F 90% 30.01 in 10.0 mi South 20.7 mph - N/A   Overcast
2:48 AM 78.8 °F 75.2 °F 89% 30.00 in 10.0 mi SSE 17.3 mph - N/A   Mostly Cloudy
2:52 AM 78.1 °F 75.9 °F 93% 30.01 in 10.0 mi South 16.1 mph - N/A   Mostly Cloudy
3:14 AM 78.1 °F 75.0 °F 90% 30.00 in 10.0 mi SSE 18.4 mph - N/A   Mostly Cloudy
3:29 AM 78.1 °F 75.9 °F 93% 30.00 in 10.0 mi South 15.0 mph - N/A   Mostly Cloudy
3:34 AM 78.1 °F 75.9 °F 93% 30.01 in 10.0 mi South 18.4 mph 24.2 mph N/A   Mostly Cloudy
3:42 AM 78.1 °F 75.0 °F 90% 30.01 in 10.0 mi South 17.3 mph - N/A   Scattered Clouds
3:52 AM 78.1 °F 75.0 °F 90% 30.00 in 10.0 mi South 17.3 mph - N/A   Scattered Clouds
4:04 AM 78.1 °F 75.9 °F 93% 30.00 in 10.0 mi South 13.8 mph - N/A   Scattered Clouds
4:15 AM 78.1 °F 75.0 °F 90% 30.00 in 10.0 mi South 15.0 mph - N/A   Mostly Cloudy
4:52 AM 77.0 °F 75.0 °F 94% 29.99 in 10.0 mi South 15.0 mph - N/A   Mostly Cloudy
5:52 AM 77.0 °F 75.0 °F 94% 29.96 in 10.0 mi South 16.1 mph - N/A   Mostly Cloudy
6:52 AM 77.0 °F 75.0 °F 94% 29.94 in 10.0 mi South 18.4 mph - N/A   Mostly Cloudy
7:06 AM 77.0 °F 75.0 °F 94% 29.94 in 10.0 mi South 21.9 mph - N/A   Scattered Clouds
7:17 AM 77.0 °F 75.0 °F 94% 29.95 in 10.0 mi South 19.6 mph - N/A   Mostly Cloudy
7:52 AM 78.1 °F 75.0 °F 90% 29.95 in 10.0 mi South 20.7 mph - N/A   Mostly Cloudy
8:23 AM 72.0 °F 70.0 °F 93% 29.96 in 10.0 mi NW 32.2 mph 47.2 mph 0.00 in Rain , Thunderstorm Light Rain
8:30 AM 68.0 °F 64.9 °F 90% 30.00 in 8.0 mi NW 35.7 mph 56.4 mph 0.06 in Rain , Thunderstorm Heavy Rain
8:35 AM 68.0 °F 66.0 °F 93% 30.03 in 2.5 mi NNW 31.1 mph 54.1 mph 0.25 in Rain , Thunderstorm Heavy Rain
8:37 AM 66.9 °F 66.0 °F 97% 30.03 in 1.8 mi NNW 26.5 mph 44.9 mph 0.32 in Rain , Thunderstorm Heavy Thunderstorms and Rain
8:52 AM 66.9 °F 66.0 °F 97% 30.03 in 1.5 mi North 20.7 mph 33.4 mph 0.59 in Rain , Thunderstorm Heavy Rain
8:55 AM 66.9 °F 66.0 °F 97% 30.02 in 2.0 mi North 23.0 mph 28.8 mph 0.01 in Rain Heavy Rain
9:05 AM 68.0 °F 66.9 °F 96% 30.02 in 4.0 mi North 16.1 mph - 0.06 in Rain Heavy Rain
9:52 AM 69.1 °F 68.0 °F 96% 30.04 in 10.0 mi NNW 13.8 mph 23.0 mph 0.12 in Rain Light Rain
10:21 AM 70.0 °F 68.0 °F 93% 30.06 in 10.0 mi West 12.7 mph - 0.00 in   Overcast
10:52 AM 68.0 °F 66.9 °F 96% 30.05 in 6.0 mi WNW 6.9 mph - 0.02 in Rain Rain
11:52 AM 70.0 °F 66.9 °F 90% 30.01 in 10.0 mi SE 4.6 mph - 0.04 in Rain Light Rain
12:52 PM 72.0 °F 66.9 °F 84% 30.00 in 10.0 mi SE 8.1 mph - 0.01 in Rain Light Rain
1:52 PM 75.9 °F 69.1 °F 79% 29.98 in 10.0 mi SE 15.0 mph - 0.00 in   Partly Cloudy
2:52 PM 75.9 °F 69.1 °F 79% 29.97 in 10.0 mi SSE 11.5 mph - N/A   Mostly Cloudy
3:52 PM 75.0 °F 66.9 °F 76% 29.96 in 10.0 mi SSE 11.5 mph - N/A   Overcast
4:52 PM 77.0 °F 68.0 °F 74% 29.93 in 10.0 mi ESE 10.4 mph - N/A   Mostly Cloudy
5:52 PM 75.9 °F 68.0 °F 76% 29.92 in 10.0 mi SSE 6.9 mph - N/A   Mostly Cloudy
6:52 PM 75.9 °F 68.0 °F 76% 29.92 in 10.0 mi South 3.5 mph - N/A   Mostly Cloudy
7:52 PM 75.9 °F 69.1 °F 79% 29.89 in 10.0 mi SE 10.4 mph - N/A   Partly Cloudy
8:52 PM 75.0 °F 70.0 °F 84% 29.90 in 10.0 mi SE 6.9 mph - N/A   Clear
9:52 PM 75.0 °F 71.1 °F 87% 29.92 in 10.0 mi SE 8.1 mph - N/A   Partly Cloudy
10:52 PM 75.0 °F 71.1 °F 87% 29.92 in 10.0 mi SE 6.9 mph - N/A   Clear
11:52 PM 75.0 °F 71.1 °F 87% 29.90 in 10.0 mi SSE 10.4 mph - N/A   Clear